Retour au catalogue

FENGYUN 1C DEB

ActifSSO
NORAD 30446·DEBRIS·🇨🇳 China

Lancé May 10, 1999 depuis Taiyuan Satellite Launch Center

Loading…

Prochains Passages (prochaines 24 heures)

TLE

FraisSource: Space-Track

Époque: Sep 13, 2026, 11:40 UTC

1 30446U 99025AFH 26256.48628412  .00002895  00000-0  79614-3 0  9992
2 30446  98.6054 348.1774 0031576 349.5618  10.4915 14.47446781 21495

Suivez FENGYUN 1C DEB en temps réel avec AllMySat

Download on the App Store